SUCEAVA/SALCEA current weather conditions

sailwx.info

Wind from 360 at 6 knots

Air temperature -8.0° C
Visibility: greater than 1.6 NM
Dewpoint -8.0° C
Present weather: Light snow. Mist.

Last reported at 2019-Jan-24 10:00 UTC.
Time now 2019-Jan-24 11:16 UTC

Location: N 47°41' E 026°21'.
View on Google Maps.

See reports from other nearby stations

  
Tides and Currents Weather Stations Pressure Air Temp Water Temp Dewpoint Dewpoint Depression Visibility Wind Speed Wind Dir Waves Ship Positions
date/time (UTC)wind fromknots sea level pressurealtimeterstation pressurevisibilityair tempwater tempwave heightnotes
2019-Jan-24 10:00 360 6 1.6-8.0 Light snow. Mist.
2019-Jan-24 09:30 360 7 1.1-8.0 Light snow. Mist.
2019-Jan-24 09:00 010 7 1.1-8.0 Light snow. Mist.
2019-Jan-24 08:30 350 6 0.8-8.0 Light snow. Mist.
2019-Jan-24 08:00 350 7 0.8-8.0 Light snow. Mist.
2019-Jan-24 07:30 350 9 1.1-8.0 Light snow. Mist.
2019-Jan-24 07:00 350 7 1.1-8.0 Light snow. Mist.
2019-Jan-24 06:30 340 7 1.1-8.0 Light snow. Mist.
2019-Jan-24 06:00 350 8 1.1-8.0 Light snow. Mist.
2019-Jan-24 05:30 350 9 0.8-8.0 Snow. Mist.
2019-Jan-24 05:00 350 11 2.2-8.0 Light snow. Mist.
2019-Jan-24 04:30 340 11 2.2-8.0 Light snow. Mist.
2019-Jan-24 04:00 340 9 2.7-7.0 Light snow. Mist.
2019-Jan-24 03:30 340 11 2.7-7.0 Light snow. Mist.
2019-Jan-24 03:00 350 9 3.8-7.0 Light snow.
2019-Jan-24 02:30 330 6 3.8-7.0
2019-Jan-24 02:00 340 9 3.2-7.0
2019-Jan-24 01:30 330 6 3.8-7.0
2019-Jan-24 01:00 340 11 3.8-7.0
2019-Jan-24 00:30 340 6 3.8-8.0
2019-Jan-24 00:00 330 6 3.2-8.0
2019-Jan-23 23:30 340 8 3.8-9.0
2019-Jan-23 23:00 330 6 4.3-9.0
2019-Jan-23 22:30 310 4 4.3-10.0
2019-Jan-23 22:00 300 4 4.3-9.0
2019-Jan-23 21:30 280 2 4.3-9.0
2019-Jan-23 21:00 280 2 4.3-10.0
2019-Jan-23 20:30 330 6 4.3-8.0
2019-Jan-23 20:00 330 8 5.4-8.0
2019-Jan-23 19:30 330 7 5.4-8.0
2019-Jan-23 19:00 330 7 5.4-7.0
2019-Jan-23 18:30 330 8 5.4-7.0
2019-Jan-23 18:00 330 6 5.4-6.0
2019-Jan-23 17:30 320 6 5.4-6.0
2019-Jan-23 17:00 330 7 5.4-6.0
2019-Jan-23 16:30 330 7 5.4-5.0
2019-Jan-23 16:00 330 6 5.4-5.0
2019-Jan-23 15:30 330 6 5.4-5.0
2019-Jan-23 15:00 340 8 5.4-5.0
2019-Jan-23 14:30 340 6 5.4-5.0
2019-Jan-23 14:00 330 7 5.4-5.0
2019-Jan-23 13:30 330 9 5.4-5.0
2019-Jan-23 13:00 340 12 5.4-5.0
2019-Jan-23 12:30 340 8 5.4-5.0
2019-Jan-23 12:00 350 9 5.4-5.0
2019-Jan-23 11:30 340 7 5.4-5.0
2019-Jan-23 11:00 330 7 5.4-5.0
2019-Jan-23 10:30 340 6 5.4-5.0
2019-Jan-23 10:00 330 6 5.4-6.0
2019-Jan-23 09:30 320 6 4.3-6.0
2019-Jan-23 09:00 330 7 3.2-6.0
2019-Jan-23 08:30 330 9 2.2-6.0 Snow. Mist.
2019-Jan-23 08:00 330 8 2.2-6.0 Snow. Mist.
2019-Jan-23 07:30 330 7 2.2-6.0 Snow. Mist.
2019-Jan-23 07:00 340 8 2.2-6.0 Snow. Mist.
2019-Jan-23 06:30 340 8 2.2-6.0 Snow. Mist.
2019-Jan-23 06:00 340 6 1.6-6.0 Snow. Mist.
2019-Jan-23 05:30 340 6 0.8-6.0 Snow. Mist.
2019-Jan-23 05:00 330 6 0.8-6.0 Light snow. Mist.
2019-Jan-23 04:30 330 6 0.4-6.0 Light snow. Fog.
2019-Jan-23 04:00 340 5 0.4-6.0 Snow. Fog.
2019-Jan-23 03:30 340 5 0.5-6.0 Snow.
2019-Jan-23 03:00 010 6 1.1-6.0 Snow. Mist.
2019-Jan-23 02:30 010 5 1.1-6.0 Snow.
2019-Jan-23 02:00 020 4 1.1-6.0 Snow. Mist.
2019-Jan-23 01:30 030 5 1.1-7.0 Snow. Mist.
2019-Jan-23 01:00 050 5 1.1-7.0 Snow. Mist.
2019-Jan-23 00:30 060 5 1.1-7.0 Snow. Mist.
2019-Jan-23 00:00 060 6 1.1-7.0 Snow. Mist.
2019-Jan-22 23:30 060 5 1.1-7.0 Snow. Mist.
2019-Jan-22 23:00 080 7 1.1-7.0 Snow. Mist.
2019-Jan-22 22:30 080 7 1.1-7.0 Snow. Mist.
2019-Jan-22 22:00 080 6 1.1-7.0 Snow. Mist.
2019-Jan-22 21:30 080 8 1.1-7.0 Snow. Mist.
2019-Jan-22 21:00 080 8 1.1-7.0 Snow. Mist.
2019-Jan-22 20:30 080 7 1.1-6.0 Snow. Mist.
2019-Jan-22 20:00 090 7 1.1-6.0 Snow. Mist.
2019-Jan-22 19:30 090 6 1.1-6.0 Snow. Mist.
2019-Jan-22 19:00 100 6 1.1-6.0 Light snow. Mist.
2019-Jan-22 18:30 100 6 1.1-6.0 Light snow. Mist.
2019-Jan-22 18:00 090 6 1.1-6.0 Light snow. Mist.
2019-Jan-22 17:30 100 7 1.1-6.0 Light snow. Mist.
2019-Jan-22 17:00 100 7 1.1-6.0 Light snow. Mist.
2019-Jan-22 16:30 090 7 1.1-6.0 Light snow. Mist.
2019-Jan-22 16:00 100 7 1.1-6.0 Light snow. Mist.
2019-Jan-22 15:30 100 7 1.1-5.0 Light snow. Mist.
2019-Jan-22 15:00 120 6 1.1-5.0 Light snow. Mist.
2019-Jan-22 14:30 130 9 1.1-5.0 Light snow. Mist.
2019-Jan-22 14:00 130 12 1.1-5.0 Light snow.
2019-Jan-22 13:30 130 13 1.1-5.0 Light snow.
2019-Jan-22 13:00 130 13 1.1-5.0 Light snow. Mist.
2019-Jan-22 12:30 130 11 1.1-5.0 Light snow. Mist.
2019-Jan-22 12:00 130 12 1.6-5.0 Light snow. Mist.
2019-Jan-22 11:30 130 13 2.7-5.0 Light snow. Mist.
2019-Jan-22 11:00 130 12 4.3-5.0